Index of /20260424/WXO-DD/model_gdps/15km/12/171
Name Last modified Size Description
Parent Directory -
20260424T12Z_MSC_GDPS_AirTemp_AGL-120m_LatLon0.15_PT171H.grib2 2026-04-24 16:31 794K
20260424T12Z_MSC_GDPS_AirTemp_AGL-2m_LatLon0.15_PT171H.grib2 2026-04-24 16:31 1.0M
20260424T12Z_MSC_GDPS_AirTemp_AGL-40m_LatLon0.15_PT171H.grib2 2026-04-24 16:31 813K
20260424T12Z_MSC_GDPS_AirTemp_AGL-80m_LatLon0.15_PT171H.grib2 2026-04-24 16:31 802K
20260424T12Z_MSC_GDPS_AirTemp_IsbL-0001_LatLon0.15_PT171H.grib2 2026-04-24 16:31 652K
20260424T12Z_MSC_GDPS_AirTemp_IsbL-0005_LatLon0.15_PT171H.grib2 2026-04-24 16:31 687K
20260424T12Z_MSC_GDPS_AirTemp_IsbL-0500_LatLon0.15_PT171H.grib2 2026-04-24 16:31 763K
20260424T12Z_MSC_GDPS_AirTemp_IsbL-0700_LatLon0.15_PT171H.grib2 2026-04-24 16:31 959K
20260424T12Z_MSC_GDPS_AirTemp_IsbL-0850_LatLon0.15_PT171H.grib2 2026-04-24 16:31 1.1M
20260424T12Z_MSC_GDPS_AirTemp_IsbL-0925_LatLon0.15_PT171H.grib2 2026-04-24 16:31 1.1M
20260424T12Z_MSC_GDPS_AirTemp_IsbL-1000_LatLon0.15_PT171H.grib2 2026-04-24 16:31 1.1M
20260424T12Z_MSC_GDPS_Albedo_Sfc_LatLon0.15_PT171H.grib2 2026-04-24 16:31 242K
20260424T12Z_MSC_GDPS_ConvectivePrecip-Accum_Sfc_LatLon0.15_PT171H.grib2 2026-04-24 16:31 3.6M
20260424T12Z_MSC_GDPS_DewPointDepression_AGL-2m_LatLon0.15_PT171H.grib2 2026-04-24 16:31 765K
20260424T12Z_MSC_GDPS_DewPointDepression_IsbL-0500_LatLon0.15_PT171H.grib2 2026-04-24 16:31 1.0M
20260424T12Z_MSC_GDPS_DewPointDepression_IsbL-0700_LatLon0.15_PT171H.grib2 2026-04-24 16:31 1.1M
20260424T12Z_MSC_GDPS_DewPointDepression_IsbL-0850_LatLon0.15_PT171H.grib2 2026-04-24 16:31 1.2M
20260424T12Z_MSC_GDPS_DewPointDepression_IsbL-0925_LatLon0.15_PT171H.grib2 2026-04-24 16:31 1.0M
20260424T12Z_MSC_GDPS_DewPointDepression_IsbL-1000_LatLon0.15_PT171H.grib2 2026-04-24 16:31 1.0M
20260424T12Z_MSC_GDPS_DewPoint_AGL-2m_LatLon0.15_PT171H.grib2 2026-04-24 16:31 613K
20260424T12Z_MSC_GDPS_DownwardLongwaveRadiationFlux-Accum_Sfc_LatLon0.15_PT171H.grib2 2026-04-24 16:31 639K
20260424T12Z_MSC_GDPS_DownwardShortwaveRadiationFlux-Accum_Sfc_LatLon0.15_PT171H.grib2 2026-04-24 16:31 839K
20260424T12Z_MSC_GDPS_FreezingRain-Accum_Sfc_LatLon0.15_PT171H.grib2 2026-04-24 16:31 535K
20260424T12Z_MSC_GDPS_GeopotentialHeight_IsbL-0001_LatLon0.15_PT171H.grib2 2026-04-24 16:31 380K
20260424T12Z_MSC_GDPS_GeopotentialHeight_IsbL-0005_LatLon0.15_PT171H.grib2 2026-04-24 16:31 487K
20260424T12Z_MSC_GDPS_GeopotentialHeight_IsbL-0500_LatLon0.15_PT171H.grib2 2026-04-24 16:31 601K
20260424T12Z_MSC_GDPS_GeopotentialHeight_IsbL-0700_LatLon0.15_PT171H.grib2 2026-04-24 16:31 693K
20260424T12Z_MSC_GDPS_GeopotentialHeight_IsbL-0850_LatLon0.15_PT171H.grib2 2026-04-24 16:31 711K
20260424T12Z_MSC_GDPS_GeopotentialHeight_IsbL-0925_LatLon0.15_PT171H.grib2 2026-04-24 16:31 730K
20260424T12Z_MSC_GDPS_GeopotentialHeight_IsbL-1000_LatLon0.15_PT171H.grib2 2026-04-24 16:31 790K
20260424T12Z_MSC_GDPS_IcePellets-Accum_Sfc_LatLon0.15_PT171H.grib2 2026-04-24 16:31 189K
20260424T12Z_MSC_GDPS_LatentHeatNetFlux_Sfc_LatLon0.15_PT171H.grib2 2026-04-24 16:31 709K
20260424T12Z_MSC_GDPS_NetLongwaveRadiationFlux-Accum_Sfc_LatLon0.15_PT171H.grib2 2026-04-24 16:31 852K
20260424T12Z_MSC_GDPS_NetShortwaveRadiationFlux-Accum_Sfc_LatLon0.15_PT171H.grib2 2026-04-24 16:31 836K
20260424T12Z_MSC_GDPS_O3MixingRatio_LatLon0.15_PT171H.grib2 2026-04-24 16:51 1.9M
20260424T12Z_MSC_GDPS_O3_EAtm_LatLon0.15_PT171H.grib2 2026-04-24 16:51 2.4M
20260424T12Z_MSC_GDPS_PlanetaryBoundaryLayerHeight_Sfc_LatLon0.15_PT171H.grib2 2026-04-24 16:31 2.5M
20260424T12Z_MSC_GDPS_Precip-Accum_Sfc_LatLon0.15_PT171H.grib2 2026-04-24 16:31 5.3M
20260424T12Z_MSC_GDPS_PrecipRate_Sfc_LatLon0.15_PT171H.grib2 2026-04-24 16:31 3.0M
20260424T12Z_MSC_GDPS_Pressure_MSL_LatLon0.15_PT171H.grib2 2026-04-24 16:31 728K
20260424T12Z_MSC_GDPS_Pressure_Sfc_LatLon0.15_PT171H.grib2 2026-04-24 16:31 1.1M
20260424T12Z_MSC_GDPS_RadiativeTemp_Sfc_LatLon0.15_PT171H.grib2 2026-04-24 16:31 493K
20260424T12Z_MSC_GDPS_Rain-Accum_Sfc_LatLon0.15_PT171H.grib2 2026-04-24 16:31 4.2M
20260424T12Z_MSC_GDPS_RelativeHumidity_AGL-2m_LatLon0.15_PT171H.grib2 2026-04-24 16:31 1.0M
20260424T12Z_MSC_GDPS_Runoff-Accum_Sfc_LatLon0.15_PT171H.grib2 2026-04-24 16:31 119K
20260424T12Z_MSC_GDPS_SensibleHeatNetFlux_Sfc_LatLon0.15_PT171H.grib2 2026-04-24 16:31 476K
20260424T12Z_MSC_GDPS_Snow-Accum_Sfc_LatLon0.15_PT171H.grib2 2026-04-24 16:31 2.3M
20260424T12Z_MSC_GDPS_SnowDepth_Sfc_LatLon0.15_PT171H.grib2 2026-04-24 16:31 1.8M
20260424T12Z_MSC_GDPS_SoilTemp_DBS-0to10cm_LatLon0.15_PT171H.grib2 2026-04-24 16:31 513K
20260424T12Z_MSC_GDPS_SoilTemp_Sfc_LatLon0.15_PT171H.grib2 2026-04-24 16:31 578K
20260424T12Z_MSC_GDPS_SoilVolumetricWaterContent_DBS-0to10cm_LatLon0.15_PT171H.grib2 2026-04-24 16:31 586K
20260424T12Z_MSC_GDPS_SoilVolumetricWaterContent_DBS-0to1cm_LatLon0.15_PT171H.grib2 2026-04-24 16:31 648K
20260424T12Z_MSC_GDPS_SpecificHumidity_AGL-120m_LatLon0.15_PT171H.grib2 2026-04-24 16:31 1.1M
20260424T12Z_MSC_GDPS_SpecificHumidity_AGL-2m_LatLon0.15_PT171H.grib2 2026-04-24 16:31 1.2M
20260424T12Z_MSC_GDPS_SpecificHumidity_AGL-40m_LatLon0.15_PT171H.grib2 2026-04-24 16:31 1.1M
20260424T12Z_MSC_GDPS_SpecificHumidity_AGL-80m_LatLon0.15_PT171H.grib2 2026-04-24 16:31 1.1M
20260424T12Z_MSC_GDPS_SpecificHumidity_IsbL-0001_LatLon0.15_PT171H.grib2 2026-04-24 16:31 1.1M
20260424T12Z_MSC_GDPS_SpecificHumidity_IsbL-0005_LatLon0.15_PT171H.grib2 2026-04-24 16:31 1.4M
20260424T12Z_MSC_GDPS_SpecificHumidity_IsbL-0500_LatLon0.15_PT171H.grib2 2026-04-24 16:31 1.4M
20260424T12Z_MSC_GDPS_SpecificHumidity_IsbL-0700_LatLon0.15_PT171H.grib2 2026-04-24 16:31 1.6M
20260424T12Z_MSC_GDPS_SpecificHumidity_IsbL-0850_LatLon0.15_PT171H.grib2 2026-04-24 16:31 1.9M
20260424T12Z_MSC_GDPS_SpecificHumidity_IsbL-0925_LatLon0.15_PT171H.grib2 2026-04-24 16:31 1.6M
20260424T12Z_MSC_GDPS_SpecificHumidity_IsbL-1000_LatLon0.15_PT171H.grib2 2026-04-24 16:31 1.5M
20260424T12Z_MSC_GDPS_SpecificHumidity_Sfc_LatLon0.15_PT171H.grib2 2026-04-24 16:31 674K
20260424T12Z_MSC_GDPS_Thickness_IsbL-0850to0700_LatLon0.15_PT171H.grib2 2026-04-24 16:31 468K
20260424T12Z_MSC_GDPS_Thickness_IsbL-1000to0500_LatLon0.15_PT171H.grib2 2026-04-24 16:31 374K
20260424T12Z_MSC_GDPS_Thickness_IsbL-1000to0850_LatLon0.15_PT171H.grib2 2026-04-24 16:31 489K
20260424T12Z_MSC_GDPS_TotalCloudCover_Sfc_LatLon0.15_PT171H.grib2 2026-04-24 16:31 829K
20260424T12Z_MSC_GDPS_UVIndex-ClearSky_Sfc_LatLon0.15_PT171H.grib2 2026-04-24 16:51 1.0M
20260424T12Z_MSC_GDPS_UVIndex_Sfc_LatLon0.15_PT171H.grib2 2026-04-24 16:51 1.5M
20260424T12Z_MSC_GDPS_UpwardLongwaveRadiationFlux_NTAtm_LatLon0.15_PT171H.grib2 2026-04-24 16:31 841K
20260424T12Z_MSC_GDPS_VerticalVelocity_IsbL-0500_LatLon0.15_PT171H.grib2 2026-04-24 16:31 1.3M
20260424T12Z_MSC_GDPS_VerticalVelocity_IsbL-0700_LatLon0.15_PT171H.grib2 2026-04-24 16:31 1.1M
20260424T12Z_MSC_GDPS_VerticalVelocity_IsbL-0850_LatLon0.15_PT171H.grib2 2026-04-24 16:31 1.6M
20260424T12Z_MSC_GDPS_WindDir_AGL-10m_LatLon0.15_PT171H.grib2 2026-04-24 16:31 1.3M
20260424T12Z_MSC_GDPS_WindDir_AGL-120m_LatLon0.15_PT171H.grib2 2026-04-24 16:31 1.4M
20260424T12Z_MSC_GDPS_WindDir_AGL-40m_LatLon0.15_PT171H.grib2 2026-04-24 16:31 1.4M
20260424T12Z_MSC_GDPS_WindDir_AGL-80m_LatLon0.15_PT171H.grib2 2026-04-24 16:31 1.4M
20260424T12Z_MSC_GDPS_WindDir_IsbL-0001_LatLon0.15_PT171H.grib2 2026-04-24 16:31 668K
20260424T12Z_MSC_GDPS_WindDir_IsbL-0005_LatLon0.15_PT171H.grib2 2026-04-24 16:31 787K
20260424T12Z_MSC_GDPS_WindDir_IsbL-0500_LatLon0.15_PT171H.grib2 2026-04-24 16:31 1.3M
20260424T12Z_MSC_GDPS_WindDir_IsbL-0700_LatLon0.15_PT171H.grib2 2026-04-24 16:31 1.6M
20260424T12Z_MSC_GDPS_WindDir_IsbL-0850_LatLon0.15_PT171H.grib2 2026-04-24 16:31 1.9M
20260424T12Z_MSC_GDPS_WindDir_IsbL-0925_LatLon0.15_PT171H.grib2 2026-04-24 16:31 2.0M
20260424T12Z_MSC_GDPS_WindDir_IsbL-1000_LatLon0.15_PT171H.grib2 2026-04-24 16:31 2.1M
20260424T12Z_MSC_GDPS_WindGust-Max_AGL-10m_LatLon0.15_PT171H.grib2 2026-04-24 16:31 2.2M
20260424T12Z_MSC_GDPS_WindGust-Min_AGL-10m_LatLon0.15_PT171H.grib2 2026-04-24 16:31 2.1M
20260424T12Z_MSC_GDPS_WindGust_AGL-10m_LatLon0.15_PT171H.grib2 2026-04-24 16:31 2.1M
20260424T12Z_MSC_GDPS_WindSpeed_AGL-10m_LatLon0.15_PT171H.grib2 2026-04-24 16:31 1.1M
20260424T12Z_MSC_GDPS_WindSpeed_AGL-120m_LatLon0.15_PT171H.grib2 2026-04-24 16:31 1.2M
20260424T12Z_MSC_GDPS_WindSpeed_AGL-40m_LatLon0.15_PT171H.grib2 2026-04-24 16:31 1.2M
20260424T12Z_MSC_GDPS_WindSpeed_AGL-80m_LatLon0.15_PT171H.grib2 2026-04-24 16:31 1.2M
20260424T12Z_MSC_GDPS_WindSpeed_IsbL-0001_LatLon0.15_PT171H.grib2 2026-04-24 16:31 642K
20260424T12Z_MSC_GDPS_WindSpeed_IsbL-0005_LatLon0.15_PT171H.grib2 2026-04-24 16:31 603K
20260424T12Z_MSC_GDPS_WindSpeed_IsbL-0500_LatLon0.15_PT171H.grib2 2026-04-24 16:31 1.1M
20260424T12Z_MSC_GDPS_WindSpeed_IsbL-0700_LatLon0.15_PT171H.grib2 2026-04-24 16:31 1.5M
20260424T12Z_MSC_GDPS_WindSpeed_IsbL-0850_LatLon0.15_PT171H.grib2 2026-04-24 16:31 1.7M
20260424T12Z_MSC_GDPS_WindSpeed_IsbL-0925_LatLon0.15_PT171H.grib2 2026-04-24 16:31 1.8M
20260424T12Z_MSC_GDPS_WindSpeed_IsbL-1000_LatLon0.15_PT171H.grib2 2026-04-24 16:31 1.9M
20260424T12Z_MSC_GDPS_WindU_AGL-10m_LatLon0.15_PT171H.grib2 2026-04-24 16:31 1.3M
20260424T12Z_MSC_GDPS_WindU_AGL-120m_LatLon0.15_PT171H.grib2 2026-04-24 16:31 1.0M
20260424T12Z_MSC_GDPS_WindU_AGL-40m_LatLon0.15_PT171H.grib2 2026-04-24 16:31 1.0M
20260424T12Z_MSC_GDPS_WindU_AGL-80m_LatLon0.15_PT171H.grib2 2026-04-24 16:31 1.0M
20260424T12Z_MSC_GDPS_WindU_IsbL-0001_LatLon0.15_PT171H.grib2 2026-04-24 16:31 645K
20260424T12Z_MSC_GDPS_WindU_IsbL-0005_LatLon0.15_PT171H.grib2 2026-04-24 16:31 683K
20260424T12Z_MSC_GDPS_WindU_IsbL-0500_LatLon0.15_PT171H.grib2 2026-04-24 16:31 1.1M
20260424T12Z_MSC_GDPS_WindU_IsbL-0700_LatLon0.15_PT171H.grib2 2026-04-24 16:31 1.2M
20260424T12Z_MSC_GDPS_WindU_IsbL-0850_LatLon0.15_PT171H.grib2 2026-04-24 16:31 1.4M
20260424T12Z_MSC_GDPS_WindU_IsbL-0925_LatLon0.15_PT171H.grib2 2026-04-24 16:31 1.5M
20260424T12Z_MSC_GDPS_WindU_IsbL-1000_LatLon0.15_PT171H.grib2 2026-04-24 16:31 1.4M
20260424T12Z_MSC_GDPS_WindV_AGL-10m_LatLon0.15_PT171H.grib2 2026-04-24 16:31 1.6M
20260424T12Z_MSC_GDPS_WindV_AGL-120m_LatLon0.15_PT171H.grib2 2026-04-24 16:31 1.0M
20260424T12Z_MSC_GDPS_WindV_AGL-40m_LatLon0.15_PT171H.grib2 2026-04-24 16:31 972K
20260424T12Z_MSC_GDPS_WindV_AGL-80m_LatLon0.15_PT171H.grib2 2026-04-24 16:31 1.0M
20260424T12Z_MSC_GDPS_WindV_IsbL-0001_LatLon0.15_PT171H.grib2 2026-04-24 16:31 775K
20260424T12Z_MSC_GDPS_WindV_IsbL-0005_LatLon0.15_PT171H.grib2 2026-04-24 16:31 757K
20260424T12Z_MSC_GDPS_WindV_IsbL-0500_LatLon0.15_PT171H.grib2 2026-04-24 16:31 1.1M
20260424T12Z_MSC_GDPS_WindV_IsbL-0700_LatLon0.15_PT171H.grib2 2026-04-24 16:31 1.2M
20260424T12Z_MSC_GDPS_WindV_IsbL-0850_LatLon0.15_PT171H.grib2 2026-04-24 16:31 1.4M
20260424T12Z_MSC_GDPS_WindV_IsbL-0925_LatLon0.15_PT171H.grib2 2026-04-24 16:31 1.5M
20260424T12Z_MSC_GDPS_WindV_IsbL-1000_LatLon0.15_PT171H.grib2 2026-04-24 16:31 1.4M